Theta_e
321 320 317 319 318 317 317 315 317 320 319 320 324 328 326 321 319 318 319 318 314 315 318 319 319 321 321 318 319 316 311 312 317 319 319 317 315 314 314 314 313 312 312 308 308 310 310 310 311 312 313 316 319 321 321 323 325 326 328 329 330 331 332 334 335 336 336 336 336 336 336 336 336 337 337 337 337 337 337 335 334 334 334 334 334 333
320 319 317 320 316 315 316 315 317 317 318 321 323 325 322 320 321 316 315 318 314 314 318 318 318 319 319 319 317 313 311 314 317 317 317 316 314 313 313 314 313 312 311 310 309 309 310 311 311 311 311 313 318 320 321 322 323 324 326 328 329 330 331 332 333 334 335 335 335 335 335 335 335 335 336 336 337 337 337 336 336 335 334 333 333 333
319 320 319 318 313 314 314 315 320 322 324 326 323 323 322 319 319 316 315 317 314 314 320 321 320 318 317 317 315 313 313 314 313 313 313 313 312 311 312 312 312 312 313 312 310 308 308 310 310 310 310 311 315 318 320 321 322 324 325 327 328 329 330 331 332 333 333 334 334 334 333 333 333 334 334 335 335 335 336 336 336 336 335 334 333 333
319 321 320 316 312 314 315 315 320 322 323 325 324 321 320 319 320 319 317 316 314 313 317 321 319 317 316 318 318 312 310 311 313 313 312 311 312 312 312 312 312 312 313 312 312 309 306 308 310 310 310 311 313 316 320 321 323 324 325 325 327 328 329 330 331 332 332 333 333 333 333 332 332 332 332 333 333 333 334 334 335 335 335 335 334 334
319 316 314 313 314 317 317 315 318 320 317 321 331 332 325 324 324 319 318 318 315 313 315 317 316 322 326 328 330 318 310 312 313 312 313 313 312 310 311 312 311 312 312 312 313 311 306 305 308 309 310 311 312 314 317 319 321 323 323 324 325 327 328 329 330 331 332 332 332 331 331 330 330 330 330 330 331 332 332 332 333 333 334 334 335 335
317 311 311 315 316 319 319 317 320 323 318 316 327 331 325 331 328 321 321 322 320 316 314 312 314 330 336 331 331 323 317 317 314 312 315 316 312 309 312 312 311 311 313 313 313 311 306 305 307 308 309 309 310 312 314 317 320 322 323 324 325 327 328 329 330 331 331 331 331 331 330 329 328 328 328 329 329 330 331 331 332 332 333 333 334 334
316 313 316 320 320 320 318 318 318 321 321 316 319 321 324 333 329 323 322 320 321 315 310 312 315 322 325 320 321 320 318 321 317 316 318 314 310 310 310 311 311 311 314 316 316 314 308 305 306 307 308 309 309 311 313 316 320 322 323 324 325 326 327 328 329 330 330 330 331 330 330 329 328 328 328 328 329 329 330 330 331 331 331 332 332 332
315 317 318 320 324 321 319 320 316 318 322 316 317 322 328 330 325 327 328 322 323 316 315 324 321 314 317 316 317 316 317 320 318 318 318 314 313 314 312 313 313 312 314 317 324 325 313 305 306 309 310 311 310 310 311 314 318 321 322 324 325 326 326 328 328 329 329 330 330 330 329 329 328 328 328 328 328 328 328 329 329 330 330 330 330 330
316 321 320 321 325 322 321 321 317 321 325 318 317 322 326 326 329 335 335 329 322 313 319 328 317 312 322 323 320 315 313 316 318 318 317 316 318 322 325 324 320 317 316 319 328 328 313 306 309 312 312 312 311 311 311 312 315 318 321 323 324 325 326 327 327 328 329 329 329 329 329 328 328 328 328 327 327 327 327 327 327 328 328 328 328 327
315 318 318 322 323 320 320 319 317 324 326 318 315 319 321 324 330 332 330 326 316 313 324 327 313 312 319 326 326 315 311 318 321 320 318 319 323 327 331 330 325 324 323 325 326 316 308 309 312 312 313 313 312 312 311 312 313 315 318 321 323 324 325 326 326 327 328 328 328 328 328 328 328 328 327 327 326 325 325 325 325 325 326 326 326 326
314 313 314 317 317 318 319 317 317 320 317 315 319 322 320 325 330 332 332 323 312 320 330 322 315 312 312 323 328 315 313 319 318 319 321 322 325 326 329 328 329 333 331 330 330 316 306 309 312 312 314 313 313 313 313 312 312 313 315 318 320 322 323 325 325 326 327 327 327 328 328 328 327 327 326 325 325 325 324 324 324 324 324 324 324 324
316 314 316 316 315 317 321 319 318 317 315 317 326 325 318 323 327 329 331 321 314 326 326 316 315 313 311 322 325 318 319 318 314 316 320 323 324 324 327 330 331 336 335 335 341 328 313 311 312 312 314 313 314 314 313 314 313 313 314 315 317 319 320 322 323 324 325 326 326 327 327 327 326 326 325 325 325 324 324 324 323 323 323 323 322 323
318 318 317 316 315 317 323 323 319 322 322 319 322 324 320 321 319 323 330 323 319 324 317 313 315 312 314 318 316 318 319 316 316 317 318 320 323 325 326 329 334 338 340 340 342 341 331 317 309 310 313 313 313 314 314 314 314 314 314 313 314 315 316 318 319 320 322 323 324 324 325 325 325 325 325 324 324 324 324 323 323 322 322 322 321 322
321 324 319 316 317 315 319 322 320 322 322 316 318 322 322 320 315 318 324 317 316 319 313 311 314 315 318 314 312 316 312 313 318 317 317 317 320 325 325 328 337 340 342 343 340 346 341 317 306 310 313 312 313 313 313 313 313 314 314 313 313 313 314 314 315 316 317 318 319 320 322 323 323 324 324 324 323 323 323 322 322 322 321 321 321 321
322 325 322 319 319 316 315 319 324 324 320 317 318 316 318 325 323 320 321 318 318 320 314 309 313 321 319 309 311 315 312 315 318 317 317 315 317 324 324 328 337 338 341 344 343 345 329 309 308 314 313 313 314 312 312 313 313 313 313 313 313 313 313 313 313 314 314 315 316 317 318 319 320 321 321 322 322 322 322 321 321 321 321 321 320 320
318 320 321 318 315 316 317 317 321 322 319 317 314 312 314 321 324 317 315 319 318 316 317 313 317 325 317 308 311 312 312 315 314 317 318 314 319 326 327 331 336 337 341 342 345 349 326 308 310 314 313 314 315 313 314 314 312 313 313 313 313 313 313 313 313 313 313 313 314 315 316 317 318 319 319 320 320 320 320 320 320 320 320 320 319 319
317 318 317 316 314 315 316 315 317 319 319 316 313 317 319 316 322 320 310 312 312 311 317 316 318 323 315 312 317 314 313 314 311 316 316 314 321 324 323 333 334 330 333 336 343 344 323 310 311 314 314 315 315 314 315 314 313 314 313 313 313 313 313 313 313 312 312 313 313 314 315 316 316 317 318 318 319 319 319 319 319 319 319 318 318 318
321 321 315 316 316 314 312 314 318 317 317 319 319 322 316 310 319 321 314 319 318 314 319 316 315 320 316 318 322 315 313 314 312 315 316 315 318 318 319 328 330 325 328 336 341 334 314 307 312 314 314 314 315 314 315 314 314 314 313 313 313 313 313 312 312 312 312 312 313 313 314 314 316 316 317 317 317 318 318 318 318 318 317 317 317 317
321 320 315 314 317 316 314 315 318 314 312 318 322 319 316 316 320 318 313 320 319 314 321 320 313 313 315 321 323 315 314 317 312 313 317 314 313 317 317 320 325 326 329 335 342 340 318 308 312 315 314 315 315 314 314 314 314 314 313 313 312 313 313 312 312 312 311 312 312 312 313 313 315 315 316 317 317 317 317 317 317 317 317 317 316 316
316 317 315 313 313 316 316 316 318 318 313 313 314 312 316 323 323 318 315 317 317 315 319 321 318 317 318 320 320 314 315 316 312 313 316 314 314 317 316 319 325 326 329 333 340 345 321 308 312 314 313 314 314 314 314 313 314 314 313 313 313 313 312 312 312 312 311 312 311 311 312 312 313 314 315 316 316 316 316 316 316 316 316 316 316 315
313 311 313 313 311 315 319 318 317 318 316 315 315 313 316 318 317 318 316 314 317 321 320 319 317 320 323 318 317 315 312 313 316 317 318 316 316 318 318 322 325 326 333 337 341 342 318 308 313 314 312 314 313 313 314 313 313 313 313 313 313 313 313 312 313 312 312 311 311 311 311 311 312 312 313 314 315 315 315 315 315 315 315 315 315 314
314 311 317 319 315 317 321 319 315 316 316 315 315 316 316 316 316 317 316 313 314 318 321 319 314 319 325 316 313 317 313 312 318 321 320 317 317 320 321 324 327 330 336 338 341 335 314 308 312 313 312 312 312 312 312 312 313 312 312 313 312 312 313 312 313 312 312 311 311 311 311 311 311 311 312 313 313 313 314 314 314 314 314 314 314 314
316 317 323 324 319 319 319 315 311 314 317 315 315 317 316 315 317 318 318 317 314 312 316 317 315 321 324 312 309 315 312 312 320 321 318 316 317 322 323 326 333 334 333 335 332 318 307 309 311 310 310 310 310 311 311 311 312 311 312 312 311 312 312 312 312 312 312 311 311 311 311 311 311 311 311 311 312 312 312 313 313 313 313 313 313 313
315 317 318 320 322 323 321 317 313 312 314 315 316 318 317 317 320 324 324 322 318 316 316 315 314 322 327 316 312 315 312 314 319 319 318 317 318 322 324 329 335 334 330 330 323 309 305 308 309 308 308 309 308 308 308 308 309 309 310 310 310 311 311 311 311 311 311 311 311 311 311 311 311 311 311 311 311 311 311 311 312 312 313 313 313 313
313 316 317 317 320 322 321 321 319 315 315 318 320 319 318 319 321 320 318 315 315 320 321 316 316 321 323 317 314 316 315 316 317 317 320 321 320 322 324 325 327 326 322 320 317 312 308 307 306 306 307 307 306 307 306 307 307 308 309 309 309 309 310 310 310 309 310 310 310 311 311 311 311 311 311 311 311 311 311 311 311 311 312 312 312 312
315 318 317 316 316 316 317 318 319 319 316 318 322 320 317 318 318 316 317 316 316 320 319 316 315 316 314 313 313 315 317 316 315 316 319 319 319 319 319 320 320 319 317 315 315 317 316 310 306 305 305 306 306 307 306 306 307 307 308 308 308 308 308 309 308 308 309 309 309 310 310 311 311 311 311 311 311 311 311 311 311 311 311 311 312 312
322 320 314 314 314 312 313 315 319 322 320 317 320 320 316 316 316 316 320 318 315 317 317 315 314 313 313 314 313 315 319 318 316 318 318 316 317 318 319 323 324 320 319 320 321 322 320 314 307 303 305 306 306 307 307 306 307 307 307 308 309 308 308 308 308 309 309 309 308 309 310 310 310 310 310 310 310 311 310 311 310 310 310 310 310 311
323 319 314 314 313 312 315 320 321 320 320 318 319 319 317 316 316 316 318 316 314 316 316 315 315 313 313 315 317 319 321 319 318 319 317 315 318 321 323 324 322 319 321 324 323 319 316 314 308 303 303 305 305 306 307 308 308 307 307 308 309 309 309 309 309 309 309 308 308 309 310 310 310 310 310 310 310 310 310 310 310 310 309 309 309 309
321 317 316 315 313 316 321 324 322 318 318 318 317 318 317 316 316 316 316 315 316 316 315 314 317 316 312 314 318 320 320 319 317 316 314 315 320 322 322 320 319 321 323 321 317 313 312 313 308 301 301 303 304 304 305 306 307 307 307 308 308 308 308 308 309 309 309 308 309 309 309 309 309 308 308 309 309 309 309 309 309 309 308 308 309 309
320 320 321 316 313 318 321 320 318 317 318 318 317 317 316 314 315 315 315 315 315 316 316 315 318 317 314 315 318 319 318 318 317 317 317 318 319 318 319 319 320 321 318 314 312 311 311 309 302 299 301 302 302 303 303 304 304 304 305 306 306 307 307 307 307 308 308 308 308 308 308 308 308 308 308 308 308 308 308 308 308 308 307 307 307 308
315 319 322 318 316 318 317 315 315 316 318 318 318 318 316 314 314 313 314 315 314 315 316 316 317 316 313 316 319 318 317 316 316 317 317 317 317 317 318 320 321 319 314 312 311 311 310 307 300 299 301 301 301 302 302 301 302 302 303 305 305 306 306 306 306 307 307 307 307 307 307 307 308 307 307 307 307 307 307 307 307 306 306 306 306 307
316 319 321 319 319 320 317 316 316 317 318 318 319 320 317 315 314 313 313 315 314 315 316 316 316 314 313 317 317 315 316 317 317 316 317 318 318 317 318 318 317 314 312 311 310 309 310 308 301 299 300 300 301 301 300 300 301 301 302 303 304 305 305 305 305 306 306 307 306 307 307 307 307 307 307 307 306 306 306 306 306 306 305 306 306 306
320 321 321 320 320 320 317 316 317 318 319 318 318 318 316 314 314 314 314 314 314 314 315 316 315 312 316 320 318 315 318 319 317 315 316 317 316 314 313 312 311 309 309 309 308 307 307 304 300 299 300 300 300 300 300 300 299 299 300 301 303 304 304 304 305 304 305 306 306 306 306 306 306 305 306 306 306 306 305 304 305 305 305 305 305 305
320 323 323 320 321 322 318 316 317 319 319 319 318 317 316 314 315 316 316 316 314 313 313 315 315 314 317 319 317 316 317 317 316 313 310 311 312 312 311 309 308 308 307 306 306 305 301 299 299 300 300 300 300 300 300 299 298 299 299 300 302 303 302 302 302 302 303 303 303 304 304 304 304 304 304 305 305 305 304 304 304 304 304 304 304 304
318 320 321 319 320 321 318 316 320 321 319 320 322 321 318 315 314 316 316 315 314 314 314 315 316 316 316 315 316 318 318 314 312 310 308 308 309 309 309 308 307 307 308 307 306 302 298 298 299 300 300 300 300 300 300 299 299 299 300 301 301 302 302 302 301 301 301 301 301 301 301 301 302 302 303 303 303 303 303 304 304 303 303 303 303 303
318 317 317 318 319 319 318 318 321 321 318 318 321 320 316 316 316 316 316 315 314 314 315 315 315 314 314 315 317 318 316 311 308 307 307 307 307 306 306 307 306 305 305 304 302 299 298 299 299 299 299 300 299 299 299 299 299 299 301 302 302 302 303 303 302 302 301 301 301 300 299 299 299 300 301 301 301 302 302 302 303 303 303 303 302 302
317 316 315 317 318 318 319 319 319 319 318 318 320 318 315 317 318 317 317 317 315 314 314 314 314 314 314 317 318 315 310 308 309 309 306 304 304 304 303 303 303 302 300 299 299 299 299 299 299 299 299 299 299 299 298 298 298 298 300 301 301 301 302 302 301 300 300 301 301 300 299 299 299 299 299 300 300 300 301 301 301 302 302 302 301 301
315 315 315 317 317 317 319 320 319 320 320 318 318 317 315 319 321 317 317 319 320 318 315 314 315 315 314 315 315 311 309 311 314 313 308 305 303 303 302 300 299 299 299 298 299 299 299 299 299 298 298 298 298 299 298 297 297 297 298 299 298 298 299 299 298 298 298 299 299 299 299 299 298 298 298 298 299 299 299 300 300 300 300 300 300 300
312 313 313 315 317 317 318 319 319 319 320 321 322 318 314 317 320 316 316 319 320 316 313 314 316 317 316 315 313 311 312 316 319 315 310 307 303 302 303 300 298 298 299 299 299 299 299 299 298 298 298 298 298 299 298 297 297 296 297 297 296 297 298 298 297 297 297 298 298 299 299 299 298 298 298 298 298 299 299 299 299 299 299 299 299 299
311 312 312 313 315 316 317 318 318 317 318 320 320 316 312 313 316 317 318 321 318 312 309 313 316 316 314 314 314 314 316 319 318 313 308 305 300 298 300 299 298 298 299 299 298 298 298 298 297 297 297 297 297 298 298 297 297 296 296 295 295 296 297 297 297 297 297 297 298 298 298 298 298 298 298 298 298 298 298 298 298 298 298 298 298 298
311 312 312 313 314 314 316 317 317 318 320 318 315 314 312 311 314 318 320 318 314 310 308 310 314 313 312 313 313 311 311 313 311 308 307 306 303 299 297 297 298 298 298 298 298 297 297 297 297 296 296 296 297 296 296 296 296 296 296 295 295 296 296 296 296 296 296 297 298 298 298 298 297 297 297 297 297 297 297 297 297 297 297 297 297 296
313 313 313 313 314 314 315 316 315 317 319 316 313 312 311 313 317 319 314 308 308 309 308 308 311 311 310 312 311 308 307 308 308 307 307 306 304 300 296 296 297 298 297 297 297 296 296 296 295 296 296 296 296 295 295 295 294 294 294 294 295 296 295 294 295 295 295 296 296 297 297 297 297 297 297 297 297 297 297 297 297 296 296 295 295 294
314 314 313 314 314 314 315 315 315 316 314 312 312 310 310 314 319 315 308 304 305 308 309 308 309 310 309 309 309 309 308 308 307 305 304 304 303 299 296 296 297 296 296 296 296 295 295 295 294 294 294 294 294 294 294 293 293 293 293 293 295 295 294 294 294 294 294 294 295 296 296 296 296 295 296 296 296 296 296 296 296 295 295 294 293 293
313 314 314 314 314 314 315 315 314 315 313 311 313 314 313 313 312 309 308 308 306 307 309 308 308 309 310 308 308 308 308 307 305 302 301 301 301 298 295 295 295 295 295 295 294 294 293 293 293 293 293 293 293 293 293 292 292 292 292 293 294 294 294 294 293 293 294 294 294 294 295 295 295 294 295 295 295 295 295 295 295 294 294 293 292 291
311 312 314 315 313 312 314 314 313 312 309 307 308 311 310 307 305 305 308 309 307 307 308 308 308 309 308 307 307 308 306 304 302 300 299 299 298 296 295 294 294 294 293 293 292 293 292 292 291 292 292 292 292 293 293 292 291 291 291 292 292 292 292 292 292 292 293 293 293 293 293 293 293 293 294 294 294 294 294 294 294 293 293 292 291 290
307 308 310 312 312 310 309 309 307 306 305 304 304 305 304 303 304 306 308 308 307 306 305 305 307 308 306 305 305 305 303 301 300 299 298 297 296 294 293 292 292 292 292 291 291 291 290 290 290 290 290 290 291 291 292 291 290 290 290 290 290 290 290 290 290 291 292 293 293 292 292 292 292 293 293 293 293 293 293 293 292 292 292 291 290 289
304 306 307 308 311 312 311 309 306 304 303 303 303 302 303 303 303 304 306 305 304 302 302 302 303 303 303 302 302 303 301 299 298 298 296 295 294 292 290 290 290 290 290 289 289 289 289 288 288 288 288 289 289 289 290 290 289 289 289 289 289 289 289 289 289 289 290 291 292 292 291 291 291 292 292 291 291 292 292 292 291 291 290 290 289 289
306 306 307 309 310 310 308 306 303 302 301 301 302 303 303 304 302 299 298 297 297 296 296 296 296 299 301 298 297 299 299 297 296 295 294 292 291 289 288 288 289 288 288 288 287 287 287 286 287 287 287 287 288 288 288 288 288 288 288 288 288 288 288 289 288 288 289 289 289 290 290 290 290 290 291 291 290 290 290 290 290 290 290 290 290 289
305 305 308 310 308 306 305 303 302 303 302 301 301 301 300 301 302 297 294 294 294 295 294 293 291 292 294 293 293 295 297 295 292 290 290 289 288 287 286 287 286 286 286 285 285 285 285 285 286 286 286 286 286 286 286 286 286 286 286 287 287 287 287 288 288 288 288 288 288 288 288 288 289 289 289 290 290 289 289 290 289 289 289 290 290 290
303 306 307 307 306 307 307 305 303 304 305 301 299 298 296 297 299 298 295 295 294 293 294 294 292 288 287 288 288 290 291 290 287 286 286 286 286 285 285 284 284 283 282 282 282 283 283 284 284 284 284 284 284 284 284 284 284 285 285 285 286 286 286 286 286 286 287 287 287 287 287 287 288 288 288 288 288 288 289 289 289 288 288 288 288 289
304 307 306 306 307 307 307 306 303 304 304 300 296 295 292 293 296 297 293 291 289 286 287 291 292 290 287 285 284 284 285 284 283 283 282 282 282 282 281 281 281 280 279 280 281 281 281 281 281 281 281 281 281 281 282 282 283 283 284 284 285 285 285 285 284 284 285 285 286 286 286 286 287 287 287 287 287 287 287 287 288 288 287 287 287 287
Wind_Speed
3 4 3 5 7 8 8 7 5 5 6 8 6 5 4 4 2 4 3 5 0 3 3 4 4 8 10 11 12 10 5 3 8 8 8 9 7 8 8 9 10 11 12 15 19 22 23 26 28 30 32 32 31 32 32 32 34 36 36 36 36 37 37 37 36 35 35 34 33 32 34 36 36 35 36 37 38 37 37 37 37 36 36 35 35 36
4 5 7 7 8 7 7 7 7 7 6 6 6 5 2 3 2 3 2 5 3 1 3 1 3 9 10 11 12 8 6 7 10 9 10 11 10 8 9 11 12 10 10 10 14 18 20 22 24 25 27 28 30 32 33 34 35 36 36 36 37 36 37 38 38 38 37 37 36 34 35 35 34 34 35 36 37 37 37 37 36 36 36 36 37 37
3 4 9 7 5 7 6 5 7 7 6 5 4 6 3 2 2 3 2 4 4 0 4 4 4 9 10 11 12 10 8 9 8 9 10 10 10 9 9 11 11 10 11 10 11 14 18 20 20 20 23 27 30 32 32 33 34 34 35 36 36 35 36 38 39 39 39 39 38 36 34 33 33 34 35 36 35 35 35 37 37 37 36 36 37 37
3 5 7 5 7 8 6 3 7 7 4 4 4 5 3 2 1 1 2 3 4 1 2 3 4 8 7 7 10 8 6 7 7 7 9 9 10 12 11 9 9 11 12 10 9 10 13 16 17 19 23 25 27 28 29 31 32 33 35 36 36 36 36 37 37 39 39 37 35 35 33 31 31 32 33 34 35 35 35 37 37 37 37 36 37 37
5 5 2 7 6 7 7 3 6 7 2 1 3 6 4 3 4 3 1 1 3 3 2 3 4 6 5 5 7 5 4 5 5 5 8 9 10 11 10 9 9 10 9 9 10 9 8 12 16 19 21 22 24 28 30 32 33 34 35 36 36 36 36 36 36 36 36 34 32 31 29 27 26 27 29 30 33 35 36 36 37 37 37 36 36 36
5 3 4 8 4 5 8 4 5 7 2 2 3 6 7 7 6 2 2 4 4 4 4 5 3 5 5 4 6 5 7 7 5 5 8 9 7 7 9 11 9 8 8 8 10 10 7 11 15 15 16 18 22 27 30 31 32 33 34 33 33 34 34 35 34 34 34 34 33 31 29 27 26 26 28 30 32 33 35 36 36 36 36 36 36 36
2 2 4 7 6 6 7 4 5 6 6 1 4 5 6 7 8 5 3 4 1 2 3 4 2 4 6 5 7 6 8 10 8 6 9 8 7 7 8 9 7 7 7 7 8 8 8 11 13 14 14 15 20 23 24 26 28 29 30 30 30 32 33 33 33 33 33 33 33 33 33 32 31 30 31 33 33 33 34 35 36 36 36 37 37 36
2 3 5 6 6 6 5 3 5 7 8 3 4 6 8 7 8 6 5 4 2 3 4 5 4 2 6 5 6 6 7 10 10 9 10 8 7 7 7 8 7 7 6 6 7 7 7 9 11 13 12 10 14 16 17 20 23 25 26 26 27 28 30 31 31 32 33 34 34 35 35 35 35 34 33 32 31 32 32 33 35 36 37 37 37 37
1 4 4 5 6 4 4 4 5 8 6 3 4 7 6 6 7 5 6 4 0 1 4 5 1 1 6 6 5 5 4 8 10 9 9 8 8 7 6 6 6 6 6 5 6 6 6 7 7 8 8 6 8 10 12 14 17 20 22 22 23 25 26 28 29 31 32 34 35 35 35 35 36 35 34 31 29 29 30 31 33 34 36 37 37 38
1 3 6 6 5 5 3 1 3 5 2 4 6 7 6 6 6 5 5 4 2 2 4 6 1 2 5 7 4 3 2 7 8 7 7 7 8 7 6 6 5 5 4 4 5 5 6 7 6 5 4 3 3 5 8 9 11 15 18 20 22 23 24 25 27 29 31 32 34 35 35 35 35 35 33 31 30 29 29 30 32 32 34 35 36 37
2 1 2 3 3 5 4 3 2 1 4 7 7 7 7 6 5 4 3 4 3 2 6 6 2 1 3 6 4 3 4 6 3 5 7 7 7 7 6 6 6 5 5 5 5 5 6 7 7 7 4 3 2 1 4 6 9 11 14 17 19 20 21 23 25 27 29 30 33 34 35 36 36 35 33 32 32 31 30 31 32 32 33 33 34 35
4 3 1 1 1 4 6 5 4 4 4 7 5 5 5 4 5 4 4 4 2 4 6 5 2 2 3 6 4 4 6 5 4 4 6 6 7 8 7 6 6 5 5 5 5 6 7 7 7 8 7 5 4 2 1 4 6 9 11 14 16 18 20 21 23 25 27 29 31 33 35 36 36 35 34 34 35 34 34 34 34 32 32 32 33 33
2 1 2 3 1 4 6 5 4 5 5 5 5 6 4 2 3 2 3 1 3 5 3 2 2 2 5 8 8 10 9 6 7 7 6 7 7 7 7 7 7 6 6 5 5 6 6 6 8 9 9 7 6 4 3 2 4 6 9 12 14 16 17 19 21 23 25 27 30 31 33 35 35 34 34 35 36 35 35 35 34 33 33 33 33 34
1 4 2 1 1 2 5 6 4 1 1 4 5 5 4 3 2 2 4 2 3 4 3 3 2 2 4 5 9 13 9 6 7 7 7 7 8 7 7 7 7 6 5 5 5 5 5 6 9 10 10 10 8 7 6 5 5 6 7 10 12 14 15 17 19 21 24 26 28 29 31 33 33 34 35 35 36 35 35 34 34 34 34 35 36 36
4 4 3 4 2 3 4 4 6 6 3 3 4 5 5 5 4 4 4 3 4 3 3 3 2 3 2 1 5 9 7 5 5 6 6 6 7 7 7 6 5 6 5 4 5 5 5 7 10 11 11 11 10 9 8 7 7 8 8 9 12 13 14 16 18 20 22 24 26 27 29 30 32 33 34 35 35 35 34 34 34 35 35 36 37 37
4 4 5 2 2 5 5 3 4 7 2 1 3 5 3 4 5 3 3 5 3 1 2 2 3 4 3 5 6 4 5 6 6 7 7 6 6 5 6 6 5 5 5 4 5 5 6 8 10 11 11 11 10 10 9 9 9 10 10 11 13 14 15 16 18 19 21 23 24 25 27 29 30 32 33 34 34 34 34 34 35 35 35 36 36 35
3 3 5 3 2 2 3 2 2 4 3 2 2 3 5 4 7 5 2 1 3 1 3 1 4 5 3 6 7 4 5 6 4 6 6 6 7 6 5 5 5 4 4 5 5 5 6 9 10 10 10 9 9 9 9 9 9 9 10 12 14 15 16 17 19 20 21 22 23 25 26 27 29 30 32 33 33 33 33 34 34 35 35 35 35 34
5 1 4 1 1 2 1 2 4 3 3 5 3 5 4 2 4 4 1 3 4 2 5 1 4 5 2 3 7 6 5 6 4 4 6 5 4 5 5 5 5 4 4 5 5 5 6 7 9 8 8 7 7 8 8 8 8 8 9 11 13 15 16 18 19 20 21 22 23 24 25 27 28 29 31 32 32 32 33 34 34 34 34 34 34 33
5 2 4 1 2 4 4 3 2 5 3 4 4 3 4 3 1 2 2 1 1 2 4 4 3 3 4 4 5 4 4 5 5 3 3 2 2 3 4 4 4 3 4 5 5 5 6 7 9 9 8 8 8 9 8 7 7 8 9 10 12 14 15 17 18 20 22 23 23 24 25 26 27 29 30 31 31 31 33 34 34 34 34 34 33 33
4 3 3 2 1 2 4 2 4 1 4 3 3 3 3 3 4 2 3 3 3 3 2 4 4 3 6 6 6 9 7 4 3 2 2 3 2 4 3 2 2 3 4 5 5 5 6 8 10 10 10 11 10 10 10 10 9 9 10 12 13 15 16 16 18 19 22 23 23 24 25 26 27 28 29 29 30 31 33 34 33 34 34 33 32 32
3 3 3 2 3 1 2 3 6 7 4 3 3 4 2 1 2 2 1 3 4 4 2 3 4 5 6 4 7 10 7 6 6 6 5 3 3 3 2 2 2 2 4 5 4 5 7 10 12 11 12 13 12 12 11 11 12 12 12 13 14 15 17 18 19 19 20 22 23 24 26 26 26 27 28 29 29 31 33 33 33 33 33 32 33 32
3 3 4 2 0 4 5 4 4 6 6 6 6 7 7 4 4 3 3 1 2 3 4 3 4 7 6 3 6 7 5 7 7 6 6 3 1 2 2 4 4 3 4 5 5 5 7 10 12 13 15 15 14 14 12 11 12 13 13 13 14 15 16 18 19 20 21 21 22 24 26 26 26 26 26 28 29 31 32 33 33 32 32 33 33 32
3 4 4 3 3 6 6 4 1 2 3 4 3 4 6 4 5 6 5 4 1 1 3 3 2 7 6 2 4 5 4 5 5 5 6 5 5 4 2 5 5 5 6 6 5 5 7 10 12 14 16 17 16 16 14 12 14 16 16 15 15 17 18 18 19 20 21 22 22 24 25 26 26 26 26 27 29 31 32 32 32 32 33 33 33 33
2 4 4 1 3 4 5 5 3 2 3 2 2 2 5 3 3 5 5 4 3 3 3 3 3 7 6 3 1 3 2 1 1 2 5 7 4 2 4 6 6 6 6 5 5 6 9 11 11 12 14 15 16 15 13 12 14 16 16 16 17 19 19 20 20 20 21 22 23 23 24 26 27 27 28 28 30 31 31 31 31 32 33 34 34 34
3 3 5 3 2 3 4 3 3 2 2 3 3 3 4 5 6 4 2 3 2 5 7 5 5 7 5 5 4 3 2 3 1 2 4 6 3 4 5 6 6 6 5 5 6 6 8 8 8 10 11 13 15 16 15 15 17 18 18 19 20 20 20 20 20 21 21 22 23 23 24 26 27 28 29 30 31 32 32 32 32 32 33 33 34 34
5 4 5 6 6 6 6 5 4 4 3 2 3 5 6 7 9 5 2 3 4 5 7 6 7 5 3 5 5 2 2 3 4 4 2 3 5 6 6 5 5 4 5 6 7 7 7 9 11 15 18 21 23 24 23 23 23 22 21 21 21 21 21 21 21 21 21 22 23 24 25 27 27 29 30 31 32 33 33 34 34 34 34 34 34 33
4 3 5 8 10 10 8 5 4 8 7 5 6 8 8 8 10 7 4 5 7 3 3 8 8 5 5 4 3 5 5 6 6 4 4 4 5 6 5 5 5 6 7 9 10 10 11 11 13 18 22 24 26 27 26 26 25 24 23 24 23 23 23 22 21 21 21 21 22 24 26 27 28 30 31 31 32 33 33 34 34 34 34 34 33 33
4 3 6 8 10 8 5 5 6 9 10 12 11 11 11 10 10 10 8 11 7 4 6 10 6 7 11 7 7 9 6 4 5 5 4 4 5 6 6 7 8 8 8 8 8 9 10 10 11 15 20 23 25 26 26 26 26 25 25 25 25 24 24 24 23 22 22 21 22 24 26 27 28 29 31 31 31 32 33 34 34 34 34 33 32 33
5 5 5 6 7 6 3 4 7 9 9 10 11 12 13 12 13 14 15 15 9 7 13 11 9 11 14 7 9 11 7 6 6 4 2 4 6 7 7 8 7 7 8 8 7 8 8 8 9 13 19 21 23 25 27 27 28 28 27 27 26 25 24 25 24 23 23 22 23 25 26 26 28 29 30 30 31 32 33 33 34 34 33 33 33 33
4 4 3 5 5 4 3 3 6 9 7 6 8 10 12 13 16 17 18 18 13 11 13 7 6 11 10 6 9 10 5 4 3 2 4 6 6 6 6 6 7 7 6 6 6 7 7 7 9 13 17 20 22 25 26 27 28 29 28 28 28 27 26 25 26 24 23 24 25 25 25 26 27 28 29 30 31 32 32 32 32 32 32 33 33 32
3 3 2 5 3 4 3 3 3 6 8 7 6 7 9 12 15 16 15 13 8 9 12 9 8 12 6 6 8 8 3 2 2 3 5 6 6 5 5 6 7 6 6 6 6 6 6 7 9 13 16 19 22 24 25 26 28 28 28 29 30 29 28 26 26 25 25 25 26 26 26 26 26 27 28 29 30 30 30 30 30 30 31 31 31 31
1 2 2 4 4 5 3 5 4 4 4 2 5 8 11 11 10 10 9 7 8 11 12 9 10 12 5 7 6 4 3 4 3 4 6 5 4 5 5 5 5 5 6 6 6 7 7 7 9 12 16 19 21 22 24 26 27 27 29 30 30 29 28 27 27 26 27 27 27 27 27 27 27 27 27 28 28 29 29 29 29 29 30 31 31 31
2 3 2 3 4 3 2 7 6 5 3 3 9 12 13 11 7 4 3 6 10 11 9 8 11 10 4 7 5 2 4 4 3 4 4 2 1 1 1 1 3 4 5 5 6 6 7 8 11 14 17 19 20 22 24 24 24 26 28 29 29 29 28 27 26 27 27 27 27 27 28 28 28 27 27 27 27 28 28 28 29 29 30 30 30 30
2 4 2 2 3 2 4 7 6 3 6 7 6 8 12 12 10 8 7 11 11 9 7 7 9 7 3 6 6 4 4 3 2 2 2 1 5 4 2 1 2 3 5 5 5 6 8 11 15 18 20 21 23 24 26 24 24 26 28 29 29 29 29 28 28 27 27 26 26 26 27 28 28 28 28 27 26 27 27 28 29 30 29 29 29 29
3 3 1 1 2 2 4 6 4 7 8 5 1 5 10 11 11 11 11 11 9 8 9 9 11 11 8 5 5 6 5 4 6 5 3 4 5 4 3 2 3 4 5 6 5 6 10 13 17 20 22 24 26 27 28 28 29 30 31 30 30 30 30 30 31 30 29 29 28 28 28 28 28 28 28 28 27 26 27 28 29 29 29 28 29 30
6 4 2 2 2 2 3 5 6 4 1 3 4 3 4 5 8 8 9 11 10 12 12 13 14 14 9 2 4 5 6 6 6 4 4 4 3 3 3 2 3 3 4 6 7 9 12 15 16 19 21 24 26 26 27 29 31 32 32 31 31 31 31 32 32 32 32 32 32 32 31 30 30 30 30 29 27 27 28 28 29 29 28 28 29 30
7 6 3 3 4 3 3 5 4 3 3 5 6 4 3 6 8 8 8 10 9 11 12 13 14 13 7 3 5 4 5 7 4 2 3 4 3 1 1 2 3 3 5 7 9 12 15 16 17 18 20 23 25 24 25 27 29 30 31 31 31 31 32 31 31 31 33 34 34 34 33 32 32 32 31 30 29 29 29 29 29 28 28 28 30 30
4 5 5 5 5 4 4 5 3 3 6 8 6 4 4 7 8 8 7 7 5 6 9 11 12 11 6 5 6 5 6 5 3 4 5 3 4 2 2 4 4 5 7 9 12 14 17 19 20 21 22 24 25 25 26 27 28 28 29 30 30 31 31 30 30 31 33 34 34 34 34 32 31 31 31 30 30 30 30 30 29 28 27 27 29 30
4 3 4 4 3 4 6 6 5 5 7 6 6 4 4 6 8 8 5 7 5 5 7 8 9 8 5 6 6 7 6 4 4 5 4 3 3 2 2 4 5 6 8 10 12 14 17 19 21 23 25 26 27 28 28 28 28 28 28 29 30 30 29 30 32 33 34 35 35 34 33 32 30 29 29 30 30 30 30 30 29 28 27 27 28 29
4 3 3 4 4 4 6 5 4 4 4 4 5 4 3 5 9 8 5 8 5 5 6 8 9 6 6 7 5 5 5 5 5 5 4 2 1 1 1 3 6 8 10 12 12 12 15 17 19 22 24 25 27 28 28 28 28 28 28 29 29 29 29 30 33 35 35 35 35 34 33 32 30 29 28 29 29 29 29 28 28 27 27 27 27 27
3 2 4 6 6 6 7 4 2 2 4 5 5 4 4 6 7 6 7 6 5 7 5 6 8 6 6 6 4 4 4 5 4 2 2 2 3 3 2 4 6 8 10 11 12 12 13 14 16 18 20 22 23 24 24 24 25 26 28 28 29 29 30 32 34 35 35 35 34 34 33 31 29 28 28 28 28 29 29 27 27 26 26 26 26 26
4 3 3 5 6 5 6 4 2 3 4 4 4 3 3 5 4 5 5 1 5 8 5 5 7 6 5 5 5 4 4 3 2 1 2 3 3 4 5 6 7 8 10 10 12 13 12 13 16 17 19 21 21 21 21 20 21 23 25 26 27 29 31 33 34 34 35 35 35 34 33 31 29 27 27 27 27 28 29 27 25 25 24 24 24 24
6 5 3 4 5 3 3 4 4 4 3 6 6 2 2 4 5 4 3 2 2 6 6 4 5 5 5 5 4 4 3 2 2 2 3 4 4 4 6 7 7 9 11 11 13 14 13 13 15 17 19 21 20 20 19 17 19 21 23 25 28 30 32 34 34 34 35 35 35 35 33 31 29 27 26 26 25 27 28 27 25 24 23 23 23 23
5 5 4 5 5 4 4 6 4 2 3 5 6 4 4 4 4 5 7 3 2 4 5 5 5 5 6 6 4 4 3 2 2 2 2 3 4 4 5 6 7 8 10 12 14 16 15 15 16 18 20 22 22 22 19 17 17 20 22 25 29 31 33 35 35 35 36 36 36 35 34 32 30 27 26 25 25 25 26 26 24 23 23 22 22 22
5 5 5 4 4 4 4 5 3 1 1 1 2 3 4 3 2 4 7 6 4 4 4 4 4 4 5 6 5 4 2 1 1 1 1 1 3 4 5 6 7 8 10 12 15 17 17 17 18 19 21 23 24 24 24 21 19 21 23 26 28 30 32 34 35 35 36 36 36 35 34 33 31 29 27 26 25 25 25 25 24 23 23 22 21 22
3 3 4 3 2 2 2 2 2 1 1 2 3 2 2 4 3 4 6 6 4 3 3 3 2 1 3 4 4 3 2 1 2 3 3 2 4 5 7 9 10 11 13 15 17 20 21 21 21 20 22 23 23 24 26 26 23 24 27 29 29 30 32 33 34 35 36 36 36 35 34 33 33 31 29 27 26 25 25 25 24 24 23 22 22 22
3 2 3 2 3 3 3 3 3 3 2 4 5 4 4 5 4 4 5 4 4 4 4 4 4 5 5 5 5 3 2 3 3 3 4 4 5 6 9 12 14 17 19 20 22 23 23 23 23 23 24 26 24 24 27 29 27 27 29 31 31 31 32 32 33 33 35 35 36 35 34 32 33 33 31 29 27 26 26 25 24 25 24 23 23 23
2 3 3 2 4 4 3 3 2 3 2 1 2 3 5 5 5 6 5 5 5 6 5 4 4 5 4 5 5 4 3 4 4 4 5 5 5 6 9 11 14 17 19 21 23 25 24 24 24 25 26 28 28 27 28 29 30 30 30 32 32 31 32 33 33 33 35 35 34 35 34 32 32 32 31 30 28 27 27 26 26 26 28 27 26 25
3 4 4 3 3 1 1 1 2 4 5 4 1 2 3 4 5 6 6 6 6 6 6 6 6 6 6 5 4 5 4 4 4 4 4 5 5 7 10 13 15 17 17 19 22 23 23 23 23 24 26 28 28 28 29 30 31 30 30 31 32 30 31 33 33 34 35 35 33 33 33 31 31 31 30 31 30 29 29 28 27 28 30 30 28 28
4 4 3 3 4 2 3 5 6 4 2 2 3 2 2 3 7 7 6 6 6 5 5 5 6 7 8 8 6 5 3 3 5 5 5 5 7 10 14 16 18 19 20 22 23 23 22 21 22 24 27 29 29 29 31 32 32 30 29 30 30 29 30 31 32 33 34 33 32 32 31 31 31 31 30 30 30 30 30 29 27 27 28 29 28 28
5 6 6 6 5 5 6 8 7 4 3 3 4 3 2 2 7 8 6 5 5 4 4 4 4 4 5 7 8 7 4 3 5 6 6 5 8 12 14 14 16 19 21 22 22 22 23 24 24 25 27 29 29 29 30 32 32 31 31 30 29 29 31 31 29 30 32 32 31 31 31 30 31 31 29 29 29 28 28 29 28 27 27 26 26 27
Wind_Direction
90 120 170 181 185 191 188 169 147 153 142 138 127 108 137 154 216 248 266 299 301 143 245 229 243 270 273 275 271 278 326 316 277 276 267 262 256 250 247 249 248 243 250 257 258 256 251 249 248 245 242 239 236 235 233 231 231 231 230 228 227 226 224 221 220 220 221 220 220 222 225 227 228 228 228 229 229 229 229 228 226 228 230 232 234 234
76 147 210 211 193 176 158 148 113 97 91 99 124 118 107 156 204 241 241 310 339 178 256 12 325 271 263 270 269 271 290 270 249 248 254 255 253 254 254 254 252 252 263 263 258 255 250 249 247 244 240 235 234 234 231 230 231 231 230 228 229 228 223 222 222 221 221 222 221 222 225 228 230 230 230 230 231 230 230 231 230 230 230 232 234 234
71 204 228 214 161 109 99 118 97 87 89 82 107 123 128 183 229 286 301 327 356 306 265 348 338 276 261 261 264 259 251 252 245 235 243 249 253 255 249 251 256 263 268 261 254 254 251 249 246 241 237 234 235 235 232 230 231 229 228 229 230 228 226 225 224 223 224 225 225 226 228 230 231 234 234 234 234 233 232 233 234 234 233 231 229 231
152 250 237 174 139 115 93 83 93 87 79 87 108 127 155 234 151 219 295 327 360 59 255 316 309 281 279 278 276 269 254 265 268 251 248 245 243 247 248 252 254 254 261 267 267 259 252 251 247 240 237 235 234 233 231 230 228 227 228 229 229 229 229 228 226 226 227 227 227 228 230 232 234 237 239 239 239 238 237 237 235 234 234 231 229 230
198 262 172 122 127 128 117 108 122 120 67 46 135 135 157 203 169 171 287 343 356 13 21 1 324 293 315 329 293 300 327 297 293 294 274 253 242 252 265 266 253 249 258 269 273 269 256 249 247 243 240 237 232 231 232 231 229 228 230 230 230 229 230 230 229 228 227 225 225 226 228 231 234 237 237 237 238 237 237 238 236 235 233 232 233 234
224 267 125 120 101 104 122 156 173 149 129 302 215 175 174 172 159 152 39 54 35 354 352 22 1 293 315 321 275 306 343 312 313 313 276 267 266 265 268 265 257 255 255 252 264 277 279 263 259 255 245 236 233 233 234 233 231 230 231 230 229 229 230 231 231 230 227 225 224 223 222 224 227 229 230 230 232 234 235 236 237 236 235 234 234 234
224 4 92 128 123 104 116 157 204 153 122 222 231 175 150 129 126 133 98 72 82 269 324 38 105 265 306 301 271 311 334 307 308 297 277 283 286 268 257 264 266 262 260 260 271 281 279 268 264 264 255 240 237 238 237 234 232 231 231 231 230 230 230 231 231 230 228 226 225 225 225 226 226 228 232 233 234 236 237 238 238 238 238 236 235 235
163 78 65 100 107 106 123 165 203 146 123 207 221 129 121 117 125 134 103 87 199 238 329 11 108 234 295 271 272 321 331 310 308 298 294 299 292 282 270 267 268 262 259 266 276 280 274 267 265 270 275 263 249 246 241 235 233 231 231 232 232 232 231 231 231 230 229 228 228 228 229 230 231 233 237 238 238 239 239 240 240 240 240 239 239 238
127 140 159 128 107 132 177 205 184 130 110 227 188 118 119 120 124 119 97 92 332 346 319 317 92 183 274 274 304 345 327 298 296 291 298 308 306 304 298 289 282 272 265 257 263 280 299 306 299 289 296 296 268 253 244 239 235 233 232 233 233 233 233 232 232 231 231 231 230 230 230 232 234 236 239 241 241 241 240 241 242 242 242 242 242 242
44 188 190 138 129 178 196 232 161 126 101 178 135 97 77 74 80 80 92 107 49 27 251 261 231 173 268 287 316 5 279 262 272 282 288 300 305 303 307 318 325 321 321 306 281 291 328 353 3 349 333 324 298 260 245 239 235 233 232 232 233 234 235 234 234 233 232 232 231 231 231 233 236 237 239 241 242 243 242 243 243 243 244 244 244 243
316 274 189 116 143 179 146 94 106 109 127 133 108 75 60 35 33 47 54 84 66 315 255 252 256 154 269 283 257 205 221 214 228 297 299 311 322 316 317 327 334 337 336 328 316 325 350 12 31 38 44 32 10 304 249 241 237 235 233 233 234 236 236 236 236 236 235 234 233 234 235 236 238 239 239 240 241 242 242 243 244 244 245 246 245 244
350 28 315 281 161 130 100 75 40 23 82 104 89 87 84 7 10 26 1 37 101 257 261 263 266 159 218 264 258 246 252 226 201 260 277 291 308 314 323 328 329 328 324 329 334 340 353 5 15 25 37 39 32 22 310 250 242 240 238 237 238 239 239 239 239 238 238 238 237 238 239 240 241 241 241 241 243 243 243 244 246 246 247 246 246 245
19 41 291 314 258 143 107 83 43 10 28 76 93 95 91 8 11 1 315 345 216 243 263 261 234 200 232 252 260 262 262 245 225 222 235 259 277 295 317 323 323 323 326 340 347 340 339 341 348 358 4 8 11 7 350 293 264 251 245 244 244 245 245 244 243 242 242 242 242 243 243 243 244 244 244 245 246 246 247 248 248 247 247 248 248 247
319 309 303 55 294 195 133 126 129 169 76 117 133 123 122 123 93 266 269 284 258 259 286 275 234 248 267 262 250 251 252 241 232 229 231 245 258 275 294 302 306 312 320 330 333 328 320 322 335 344 347 348 350 348 337 320 303 283 268 261 258 258 256 252 250 249 248 247 248 248 248 248 247 247 247 248 249 250 250 251 251 251 251 252 252 253
173 271 233 165 216 193 165 171 154 147 147 166 156 128 141 156 154 205 221 211 240 276 303 289 250 196 202 266 239 239 263 284 268 268 272 262 256 269 290 304 310 314 322 328 324 312 307 324 336 340 344 346 344 340 332 325 315 302 295 284 276 274 268 262 259 256 255 255 254 253 252 251 251 251 251 252 252 253 253 254 254 255 255 256 257 258
154 243 260 271 263 162 169 222 130 114 109 240 123 104 158 185 140 136 184 173 169 310 302 259 239 210 205 285 279 248 280 303 300 304 308 299 299 314 319 323 321 311 313 326 333 326 323 337 346 344 346 350 350 346 340 333 323 314 309 300 292 289 280 272 268 265 263 262 260 258 256 255 254 254 253 253 254 255 255 257 257 258 259 259 261 261
147 259 300 339 343 134 166 224 111 121 175 169 122 170 215 174 114 112 213 70 81 238 270 215 246 291 326 297 301 318 295 295 311 315 302 289 310 329 319 307 303 306 322 326 323 313 315 333 345 346 345 348 353 354 352 347 335 322 315 308 302 297 289 282 276 272 270 267 264 262 260 259 257 256 256 256 257 258 259 259 259 260 261 261 262 262
153 202 309 21 119 295 297 113 60 34 121 124 172 208 194 124 90 105 186 358 44 245 277 262 234 289 338 277 319 346 300 268 248 291 298 286 299 309 299 297 287 291 323 321 311 303 303 321 335 341 340 336 338 340 342 342 330 318 314 307 303 301 297 291 284 277 273 268 266 266 264 262 261 259 259 259 260 260 260 260 260 261 262 262 263 264
141 143 307 4 160 298 349 92 76 356 54 128 179 171 117 139 168 88 148 178 130 236 285 302 271 262 203 226 297 290 237 238 236 269 300 238 197 256 291 315 304 323 352 338 329 323 316 328 335 336 331 326 328 326 322 320 314 310 309 304 301 302 301 295 287 279 274 270 268 269 268 266 264 262 261 260 261 261 260 261 262 263 264 265 265 265
139 146 262 315 276 307 13 116 193 237 31 57 101 102 79 135 163 156 152 159 172 196 269 307 320 274 228 212 224 232 216 192 201 156 146 192 230 275 289 334 344 5 355 327 321 313 314 328 331 328 322 320 321 318 314 309 308 310 311 311 311 310 307 300 291 283 277 272 269 269 268 266 265 263 262 261 261 261 262 263 264 265 266 267 267 267
126 154 215 304 342 205 194 220 190 169 150 113 120 153 173 81 109 155 157 120 141 160 188 284 303 272 252 205 199 227 216 184 185 146 151 229 294 301 256 217 247 313 306 297 303 302 308 321 325 324 320 316 314 313 310 306 305 308 310 313 317 317 315 312 306 296 287 280 272 269 268 266 266 266 264 264 262 263 264 265 265 266 268 268 268 267
151 156 169 152 197 202 228 260 197 172 172 166 174 186 180 154 126 150 246 233 116 152 170 189 269 264 254 207 205 228 207 191 192 148 145 199 178 118 185 221 234 269 282 282 285 288 299 310 316 319 318 317 314 310 303 295 296 297 299 305 309 308 310 312 312 307 301 294 281 273 271 270 270 269 267 266 265 265 266 266 267 267 268 268 268 267
130 110 129 162 213 217 245 277 215 164 133 135 191 195 168 158 138 151 208 223 136 174 151 121 262 267 266 233 216 242 235 197 184 145 129 143 148 143 220 259 257 250 253 264 272 277 283 292 304 312 316 320 320 316 307 295 290 288 290 299 303 302 304 307 308 307 303 299 291 283 278 275 273 270 268 267 267 267 267 268 269 269 268 268 268 267
117 108 128 197 304 306 311 333 14 61 94 125 244 174 155 178 147 145 179 174 157 192 153 109 256 266 281 299 272 268 276 153 175 165 135 142 163 212 266 276 270 256 259 269 267 261 261 272 292 305 310 318 323 324 318 302 298 299 302 309 310 307 308 308 306 305 301 297 295 290 283 279 276 271 268 268 267 268 268 267 268 268 267 267 267 266
198 160 132 127 26 350 332 331 323 284 184 191 220 175 162 142 103 99 128 114 197 215 167 161 237 254 277 320 351 8 59 88 216 241 158 154 199 262 267 265 255 247 259 266 259 255 254 267 294 308 314 327 333 334 329 323 326 329 328 327 323 317 318 316 312 309 304 298 293 290 286 282 278 273 270 269 268 268 268 266 265 265 265 264 263 263
185 181 147 151 177 197 207 213 217 201 172 193 200 177 175 151 142 161 137 127 231 226 164 184 235 246 277 325 338 347 115 156 220 266 271 209 233 251 257 260 257 265 303 323 324 324 323 325 334 337 337 339 339 338 337 337 341 342 339 338 335 329 328 328 324 318 312 304 296 291 289 286 282 277 275 273 272 271 270 268 267 265 264 263 261 261
137 191 186 185 204 208 201 199 164 137 148 205 206 178 182 181 174 168 128 176 213 183 172 225 228 224 249 271 260 241 210 197 216 252 273 254 255 272 295 321 338 340 338 343 342 336 336 337 338 337 336 336 337 339 341 343 346 346 344 345 345 341 339 338 333 327 320 311 301 295 293 291 288 285 282 279 277 275 273 271 269 267 266 264 261 260
110 218 208 196 221 223 195 197 178 153 173 200 196 183 188 187 177 174 191 212 197 129 237 237 190 213 241 220 215 236 226 224 256 270 281 296 302 310 327 344 352 348 332 329 330 332 336 333 330 331 332 336 339 341 345 348 349 349 347 347 349 348 346 343 338 332 326 316 306 302 301 300 297 292 288 285 282 279 277 274 272 270 268 265 262 261
138 216 209 185 223 235 198 198 187 173 188 200 194 192 191 183 181 190 210 218 186 177 239 231 161 211 239 204 207 232 216 216 251 265 295 311 311 317 332 343 339 320 308 317 330 337 336 327 326 330 332 338 343 345 348 349 348 348 346 346 348 349 348 344 338 333 327 318 311 309 309 307 303 298 294 290 287 284 282 279 277 275 272 268 265 263
159 211 190 162 203 235 215 196 182 176 185 202 200 196 190 188 193 199 213 221 206 209 246 244 184 232 242 187 211 234 203 193 248 309 309 296 294 307 320 315 298 289 304 334 338 331 329 324 328 333 336 342 346 346 346 345 345 345 344 345 346 347 347 343 337 333 327 319 316 315 314 311 308 304 299 295 292 289 286 284 281 278 275 272 269 265
197 212 145 127 169 246 220 159 153 166 177 195 206 202 197 198 205 212 219 221 211 228 254 263 257 261 243 173 218 244 202 182 284 285 270 265 261 261 264 270 278 296 332 347 334 325 332 334 337 341 341 342 343 343 343 341 341 343 344 345 346 345 345 342 338 333 327 322 321 320 317 315 313 309 304 300 296 292 289 287 284 280 277 274 270 267
178 196 76 108 169 241 207 153 129 92 101 198 233 215 202 198 207 218 218 205 194 217 238 246 255 262 226 174 215 238 181 204 225 219 232 248 246 234 235 263 295 321 332 333 331 335 340 339 339 339 337 337 339 342 342 340 340 342 344 344 345 345 344 342 338 333 328 326 325 323 321 318 315 312 309 306 302 297 293 288 284 280 278 274 271 268
131 139 119 151 185 227 166 145 128 82 74 249 239 215 201 200 200 179 184 215 209 206 213 222 239 249 184 164 210 193 161 211 218 208 241 281 60 126 194 289 329 327 322 326 331 333 334 333 333 332 332 335 338 339 340 340 340 341 341 342 344 344 344 341 338 333 328 327 327 325 323 320 316 313 312 311 307 301 295 289 284 281 278 276 274 269
105 115 132 179 180 182 139 123 114 152 209 233 230 190 187 196 191 177 197 218 208 199 217 240 255 259 179 175 209 192 171 196 159 162 229 115 99 87 61 39 338 316 318 328 329 328 329 331 333 335 336 338 339 340 343 344 343 341 341 342 343 344 344 340 337 334 331 330 331 330 327 323 319 315 314 313 309 303 296 290 286 283 280 277 273 267
139 125 139 153 136 150 139 130 163 213 220 250 301 169 186 193 185 191 220 228 203 200 230 250 260 257 238 200 179 170 162 137 122 127 136 135 128 111 85 16 338 333 331 332 328 326 331 334 334 336 338 339 341 344 347 348 346 344 343 344 344 344 344 340 338 338 338 336 336 335 333 329 323 318 316 314 309 303 296 290 287 284 282 278 273 268
169 165 153 156 164 161 151 174 210 235 268 296 279 219 193 180 168 189 237 246 216 200 213 230 240 248 246 176 128 155 155 131 122 137 152 149 135 99 89 355 327 318 315 321 322 324 332 335 334 333 335 338 341 346 349 349 346 344 343 345 345 344 343 341 340 341 340 337 336 336 334 331 325 320 317 314 309 302 296 291 288 285 283 278 273 269
172 168 167 200 198 186 192 206 229 324 321 260 243 231 192 170 165 179 223 247 229 201 204 220 235 248 246 152 132 154 143 119 115 204 202 172 165 193 269 294 300 301 314 328 332 334 338 340 339 338 338 338 341 346 347 346 344 343 342 343 344 342 342 341 340 340 338 335 333 332 332 331 326 321 317 314 308 302 298 294 290 287 282 276 272 269
157 160 174 207 206 182 210 233 236 248 251 240 222 212 198 180 165 167 199 247 252 199 198 211 227 240 229 149 139 147 136 127 165 229 243 204 167 185 274 290 302 327 340 343 343 344 347 348 345 343 342 340 342 347 347 344 343 341 339 340 340 339 338 338 338 337 334 332 330 329 329 328 325 321 317 313 308 303 300 297 292 289 283 276 272 270
127 118 142 190 210 189 204 227 224 222 246 246 223 224 213 173 140 131 183 249 246 187 182 193 210 220 185 151 149 141 142 178 220 238 253 233 186 202 274 302 328 348 351 350 350 346 345 347 345 345 347 346 345 346 346 344 342 339 337 337 336 335 336 336 335 334 331 328 327 325 325 325 324 320 317 313 309 305 302 299 295 291 285 278 273 271
147 138 154 188 213 208 205 225 230 228 261 250 220 226 212 154 125 124 200 249 228 177 174 172 178 177 155 153 146 125 148 196 213 223 233 235 276 280 279 323 336 344 345 348 352 346 342 345 343 342 345 344 341 343 343 341 339 336 334 334 332 332 333 333 331 330 328 325 323 322 322 322 321 319 316 313 310 307 303 299 296 291 285 280 276 272
160 168 189 196 207 212 214 230 253 253 259 234 204 195 162 139 131 165 216 234 183 176 184 156 153 158 153 149 132 125 176 195 181 200 269 335 344 312 314 333 331 334 336 340 345 343 340 340 338 335 335 335 335 336 337 336 332 329 329 329 327 328 330 330 328 328 326 323 320 319 319 320 319 317 315 313 310 307 303 299 295 291 285 281 276 271
169 178 198 195 201 210 213 217 240 258 244 187 175 205 164 148 183 212 215 193 155 170 177 152 153 161 150 141 139 146 175 199 177 197 301 308 291 288 311 329 331 333 335 336 341 341 335 330 330 327 326 330 332 330 331 329 322 321 323 321 321 325 328 328 327 326 324 320 318 316 317 317 316 314 312 311 310 306 302 300 296 291 285 280 274 269
174 173 189 190 190 195 206 208 212 236 209 148 144 190 196 183 206 187 130 64 121 151 156 164 177 175 150 143 165 170 174 216 229 215 244 255 256 275 303 320 323 326 331 332 333 335 330 322 319 318 320 325 327 326 327 322 315 316 317 316 320 328 328 326 327 325 321 318 316 315 315 315 313 311 308 308 307 303 300 298 295 289 283 277 271 266
186 183 188 194 190 177 196 213 206 186 176 159 160 191 202 199 198 158 134 130 166 165 158 157 178 189 165 147 162 179 192 228 224 167 194 242 257 262 284 309 314 317 325 327 328 332 331 322 317 317 320 324 327 327 326 321 314 311 310 315 324 330 329 328 327 324 320 318 315 314 314 313 311 308 305 304 303 299 296 295 291 285 279 273 266 261
220 199 171 175 191 175 182 215 225 176 182 173 159 184 175 149 139 145 134 130 159 190 169 146 171 198 173 146 143 145 153 233 334 59 141 228 257 266 286 302 308 316 322 325 329 333 332 325 321 320 320 324 328 329 327 326 319 309 308 317 326 328 327 327 325 321 319 316 313 313 313 312 309 306 303 302 299 294 291 290 285 279 274 268 260 255
253 198 136 138 207 214 206 205 176 89 68 93 81 86 127 110 103 116 107 102 126 152 132 121 127 120 115 118 112 100 90 52 9 346 341 337 320 316 320 320 325 334 334 332 335 335 333 329 326 322 320 321 325 327 326 325 322 315 315 321 325 326 326 324 321 319 317 315 313 312 312 310 307 305 303 300 295 290 287 284 278 273 269 262 255 251
288 181 139 150 192 200 226 211 147 117 136 136 112 82 76 76 66 78 92 94 101 104 96 90 89 86 84 84 85 76 28 27 24 346 339 346 331 323 328 329 332 337 336 335 334 334 333 331 327 324 321 319 321 324 323 321 320 319 319 322 324 326 326 323 320 318 315 313 311 310 309 307 306 304 302 299 294 289 284 279 272 266 261 254 248 245
235 164 157 190 190 182 218 232 141 79 32 36 113 112 109 94 67 63 83 100 95 88 79 73 84 90 79 73 82 77 31 12 13 351 334 331 321 319 325 327 328 330 330 329 330 330 331 327 323 321 318 316 318 321 320 318 318 319 321 322 325 327 326 323 321 318 314 311 309 307 306 305 303 301 300 297 294 288 282 277 270 263 258 253 248 244
151 160 175 174 163 132 352 234 151 78 24 346 2 94 96 105 97 82 77 84 82 77 72 63 63 71 71 65 69 68 40 358 351 353 334 319 318 320 323 325 325 324 324 324 325 325 323 320 317 316 312 311 314 318 316 314 315 318 321 322 324 327 325 322 321 317 313 311 309 306 305 304 301 298 296 294 291 288 283 278 272 266 264 261 255 250
142 169 179 130 140 183 207 190 171 130 101 222 190 127 48 85 112 103 83 75 69 58 63 68 60 57 57 52 55 66 51 347 344 346 329 318 319 318 321 326 326 323 324 325 324 323 321 318 316 314 311 311 315 316 314 313 315 318 321 322 324 326 322 319 318 314 310 309 308 306 305 303 300 297 294 290 288 286 284 281 274 267 265 264 260 255
171 181 179 153 169 220 210 180 164 129 121 166 154 108 18 55 107 105 91 87 79 52 54 80 80 63 55 52 52 53 41 355 350 343 325 314 316 315 317 323 322 319 320 322 323 323 321 319 317 314 311 311 313 313 312 312 314 318 322 324 326 326 322 319 316 310 306 306 306 305 304 301 297 296 293 289 286 283 282 281 277 269 262 261 260 257